Weather in Rakitovka

Russia / Republic of Bashkortostan     54°26′49″N   55°54′37″E
temp.,
°C
wind,
m/s
gust,
m/s
humid.,
%
clouds,
%
prec.,
mm/h
press.,
hPa
HPBL,
m
7 march, sun
sun723:00−10wsw3495100 0.2 101373
02:00−12w3395100 0.0 101344
05:00−14nw2397100 0.1 101227
08:00−16nw2297100 0.0 101120
11:00−13nw249378 0.0 1010193
14:00−10nw248662 0.0 1010446
17:00−10w248981 0.1 1010559
20:00−15sw339480 0.0 101121
8 march, mon
mon823:00−16ssw339665 0.0 101231
02:00−17s459623 0.0 101096
05:00−14s7129160 0.0 1008309
08:00−11s91791100 0.6 1004673
11:00−7ssw111791100 1.3 10021071
14:00−3ssw111889100 0.7 10011310
17:00−2wsw91484100 1.5 10021269
20:00−6sw7158046 0.1 1004420
9 march, tue
tue923:00−8sw5138723 0.1 1006333
02:00−10ssw358931 0.0 100657
05:00−7se119766 0.5 100530
08:00−4ssw31097100 1.5 1003425
11:00−3wsw81285100 2.4 10031165
14:00−4wsw81176100 0.1 10051290
17:00−6w378599 0.1 1008527
20:00−12w119299 0.0 100921
10 march, wed
wed1023:00−13nnw119385 0.0 100921
02:00−13nnw2397100 0.0 100724
05:00−13nnw4797100 0.1 1007155
08:00−16nw4797100 0.0 1007158
11:00−13nw5793100 0.1 1008341
14:00−14nw6893100 0.1 1009407
17:00−15nw6892100 0.2 1011470
20:00−18nw4994100 0.1 1013344
11 march, thu
thu1123:00−22wnw3697100 0.1 1016147
02:00−25nw349595 0.0 101741
05:00−28wnw239559 0.0 101919
08:00−29wsw2210046 0.0 102119
11:00−24sw239255 0.0 1021231
14:00−20sw469067 0.0 1021376
17:00−17sw488862 0.0 1021552
20:00−19sw4896100 0.1 1022216